Simultaneous Nadir Overpasses (SNOs) Predictions

Prediction of SNOs between FY3D and NOAA-19 Satellite Orbit:

Table of predicted SNOs for the next 14.0 days since TLE Epoch: 9/17/2022
Index Date (FY3D) Time (FY3D) Lat,Lon (FY3D) SZA (FY3D ) Date (NOAA-19) Time (NOAA-19) Lat,Lon (NOAA-19) SZA (NOAA-19 ) Distance(km) Time Diff (sec)
1 10/01/2022 01:10:30 77.15, 148.19 80.46 10/01/2022 01:09:16 77.11, 147.67 80.46 13.62 74
2 10/01/2022 02:01:17 -77.20, -44.72 99.47 10/01/2022 02:00:12 -77.20, -44.64 99.46 1.98 65
3 10/01/2022 02:52:02 77.18, 122.68 80.52 10/01/2022 02:51:14 77.18, 122.50 80.54 4.31 48
4 10/01/2022 03:42:48 -77.19, -70.05 99.46 10/01/2022 03:42:12 -77.19, -70.19 99.44 3.67 36



Historial Predications of SNOs between FY3D and NOAA-19
